Location: Oberwangen
(47.4286°N, 8.9679°E)
Time: 12:35:02
(UTC+00:00)

Cosmos 1953 Rocket - Pass Details

Date: 25 October 2021
Orbit: 604 x 635 km, 82.5° (Epoch: 26 November)

Event Time Altitude Azimuth Distance (km) Brightness Sun altitude
Rises 17:00:27 0° 9° (N) 2,944 6.8 -7.8°
Reaches altitude 10° 17:05:01 10° 52° (NE) 2,023 5.7 -8.5°
Maximum altitude 17:05:41 10° 61° (ENE) 2,002 5.6 -8.6°
Enters shadow 17:06:04 10° 66° (ENE) 2,007 5.6 -8.7°
